West Bend, WI

12:19 AM CDT on September 20, 2017 (GMT -0500)
West Bend Municipal

Weather History for KETB - October, 2012

Change the Weather History Date:

Tuesday, October 9, 2012

  Actual Average Record
Temperature  
Mean Temperature 51 °F -  
Max Temperature 60 °F 58 °F 79 °F (1963)
Min Temperature 41 °F 40 °F 26 °F (1989)
Degree Days  
Heating Degree Days 14    
Growing Degree Days 1 (Base 50)    
Moisture  
Dew Point 35 °F    
Average Humidity 58    
Maximum Humidity 87    
Minimum Humidity 39    
Precipitation  
Precipitation 0.06 in - - ()
Sea Level Pressure  
Sea Level Pressure 29.82 in    
Wind  
Wind Speed 13 mph (SW)    
Max Wind Speed 21 mph    
Max Gust Speed 31 mph    
Visibility 10 miles    
Events Rain    
Averages and records for this station are not official NWS values.
T = Trace of Precipitation, MM = Missing Value Source: NWS Daily Summary

Daily Weather History Graph

Daily Weather History Graph

Search for Another Location

Airport or City:

Trip Planner

Search our weather history database for the weather conditions in past years. The results will help you decide how hot, cold, wet, or windy it might be!

Date:

Astronomy

Oct. 09, 2012 Rise Set
Actual Time 6:59 AM CDT 6:18 PM CDT
Civil Twilight 6:31 AM CDT 6:47 PM CDT
Nautical Twilight 5:58 AM CDT 7:20 PM CDT
Astronomical Twilight 5:24 AM CDT 7:53 PM CDT
Moon 12:25 AM CDT (10/9) 2:55 PM CDT (10/9)
Length of Visible Light 12h 15m
Length of Day
11h 18m
Last Quarter, 36% of the Moon is Illuminated
Oct 9
Last Quarter
Oct 15
New
Oct 21
First Quarter
Oct 29
Full
Nov 6
Last Quarter

Hourly Weather History & Observations

Time (CDT) Temp. Windchill Dew Point Humidity Pressure Visibility Wind Dir Wind Speed Gust Speed Precip Events Conditions
12:15 AM 53.6 °F - 30.2 °F 41% 29.88 in 10.0 mi SSW 12.7 mph 26.5 mph N/A   Clear
12:35 AM 53.6 °F - 30.2 °F 41% 29.87 in 10.0 mi SSW 16.1 mph 21.9 mph N/A   Clear
12:55 AM 53.6 °F - 30.2 °F 41% 29.87 in 10.0 mi SSW 16.1 mph 26.5 mph N/A   Clear
1:15 AM 51.8 °F - 30.2 °F 44% 29.87 in 10.0 mi SSW 17.3 mph 24.2 mph N/A   Scattered Clouds
1:35 AM 51.8 °F - 30.2 °F 44% 29.87 in 10.0 mi SSW 16.1 mph 24.2 mph N/A   Mostly Cloudy
1:55 AM 51.8 °F - 30.2 °F 44% 29.86 in 10.0 mi SSW 13.8 mph 23.0 mph N/A   Mostly Cloudy
2:15 AM 51.8 °F - 32.0 °F 47% 29.85 in 10.0 mi SSW 15.0 mph - N/A   Scattered Clouds
2:35 AM 51.8 °F - 32.0 °F 47% 29.85 in 10.0 mi SSW 17.3 mph 24.2 mph N/A   Clear
2:55 AM 51.8 °F - 32.0 °F 47% 29.85 in 10.0 mi SSW 17.3 mph 23.0 mph N/A   Scattered Clouds
3:15 AM 51.8 °F - 32.0 °F 47% 29.85 in 10.0 mi SW 15.0 mph 25.3 mph N/A   Scattered Clouds
3:35 AM 51.8 °F - 32.0 °F 47% 29.85 in 10.0 mi SSW 13.8 mph 24.2 mph N/A   Scattered Clouds
3:55 AM 51.8 °F - 32.0 °F 47% 29.85 in 10.0 mi SSW 16.1 mph 21.9 mph N/A   Scattered Clouds
4:15 AM 51.8 °F - 32.0 °F 47% 29.84 in 10.0 mi SSW 15.0 mph 20.7 mph N/A   Scattered Clouds
4:35 AM 51.8 °F - 32.0 °F 47% 29.84 in 10.0 mi SSW 10.4 mph 20.7 mph N/A   Mostly Cloudy
4:55 AM 51.8 °F - 32.0 °F 47% 29.85 in 10.0 mi SSW 11.5 mph 18.4 mph N/A   Mostly Cloudy
5:15 AM 51.8 °F - 32.0 °F 47% 29.85 in 10.0 mi SSW 13.8 mph 20.7 mph N/A   Overcast
5:35 AM 51.8 °F - 32.0 °F 47% 29.84 in 10.0 mi SSW 10.4 mph - N/A   Overcast
5:55 AM 51.8 °F - 32.0 °F 47% 29.84 in 10.0 mi SSW 11.5 mph 17.3 mph N/A   Overcast
6:15 AM 51.8 °F - 32.0 °F 47% 29.85 in 10.0 mi SSW 12.7 mph - N/A   Overcast
6:35 AM 51.8 °F - 32.0 °F 47% 29.84 in 10.0 mi SSW 12.7 mph 19.6 mph N/A   Overcast
6:55 AM 50.0 °F - 32.0 °F 50% 29.84 in 10.0 mi SSW 11.5 mph 17.3 mph N/A   Mostly Cloudy
7:15 AM 50.0 °F - 32.0 °F 50% 29.83 in 10.0 mi SSW 9.2 mph - N/A   Overcast
7:55 AM 50.0 °F - 32.0 °F 50% 29.84 in 10.0 mi SSW 10.4 mph - N/A   Overcast
8:15 AM 50.0 °F - 33.8 °F 54% 29.84 in 10.0 mi SSW 10.4 mph - N/A   Mostly Cloudy
8:35 AM 51.8 °F - 33.8 °F 50% 29.83 in 10.0 mi SSW 10.4 mph - N/A   Mostly Cloudy
8:55 AM 51.8 °F - 33.8 °F 50% 29.83 in 10.0 mi SW 11.5 mph 17.3 mph N/A   Scattered Clouds
9:35 AM 51.8 °F - 33.8 °F 50% 29.82 in 10.0 mi SSW 12.7 mph 17.3 mph N/A   Mostly Cloudy
9:55 AM 51.8 °F - 33.8 °F 50% 29.82 in 10.0 mi SSW 11.5 mph 17.3 mph N/A   Scattered Clouds
10:15 AM 51.8 °F - 33.8 °F 50% 29.82 in 10.0 mi WSW 10.4 mph 17.3 mph N/A   Mostly Cloudy
10:35 AM 53.6 °F - 33.8 °F 47% 29.81 in 10.0 mi SW 13.8 mph 18.4 mph N/A   Scattered Clouds
10:55 AM 53.6 °F - 33.8 °F 47% 29.82 in 10.0 mi SW 15.0 mph 20.7 mph N/A   Scattered Clouds
11:15 AM 53.6 °F - 35.6 °F 51% 29.80 in 10.0 mi SSW 11.5 mph 17.3 mph N/A   Scattered Clouds
11:35 AM 53.6 °F - 35.6 °F 51% 29.80 in 10.0 mi SSW 12.7 mph 17.3 mph N/A   Mostly Cloudy
11:55 AM 55.4 °F - 35.6 °F 47% 29.79 in 10.0 mi SW 12.7 mph 18.4 mph N/A   Overcast
12:15 PM 55.4 °F - 35.6 °F 47% 29.78 in 10.0 mi SSW 15.0 mph 19.6 mph N/A   Mostly Cloudy
12:35 PM 57.2 °F - 35.6 °F 44% 29.78 in 10.0 mi SW 15.0 mph 20.7 mph N/A   Mostly Cloudy
12:55 PM 59.0 °F - 35.6 °F 42% 29.78 in 10.0 mi SW 18.4 mph - N/A   Overcast
1:15 PM 59.0 °F - 35.6 °F 42% 29.77 in 10.0 mi SW 15.0 mph 20.7 mph N/A   Overcast
1:35 PM 57.2 °F - 35.6 °F 44% 29.76 in 10.0 mi SW 17.3 mph - N/A   Overcast
1:55 PM 57.2 °F - 35.6 °F 44% 29.75 in 10.0 mi SW 13.8 mph 23.0 mph N/A   Overcast
2:15 PM 59.0 °F - 35.6 °F 42% 29.74 in 10.0 mi SSW 17.3 mph 26.5 mph N/A   Overcast
2:35 PM 60.8 °F - 35.6 °F 39% 29.75 in 10.0 mi SW 16.1 mph 26.5 mph N/A   Mostly Cloudy
2:55 PM 60.8 °F - 35.6 °F 39% 29.75 in 10.0 mi SSW 17.3 mph 25.3 mph N/A   Mostly Cloudy
3:15 PM 60.8 °F - 35.6 °F 39% 29.75 in 10.0 mi SW 16.1 mph 25.3 mph N/A   Overcast
3:35 PM 59.0 °F - 35.6 °F 42% 29.75 in 10.0 mi WSW 16.1 mph 26.5 mph N/A   Overcast
4:15 PM 59.0 °F - 37.4 °F 45% 29.77 in 10.0 mi WNW 17.3 mph 28.8 mph N/A   Overcast
4:35 PM 51.8 °F - 42.8 °F 71% 29.78 in 10.0 mi WNW 13.8 mph 24.2 mph N/A   Overcast
4:55 PM 51.8 °F - 41.0 °F 67% 29.78 in 10.0 mi West 15.0 mph 20.7 mph N/A   Overcast
5:15 PM 51.8 °F - 41.0 °F 67% 29.79 in 10.0 mi West 16.1 mph 19.6 mph N/A   Overcast
5:35 PM 48.2 °F - 42.8 °F 82% 29.81 in 7.0 mi WNW 20.7 mph 31.1 mph N/A   Heavy Drizzle
5:55 PM 44.6 °F 38.8 °F 41.0 °F 87% 29.82 in 10.0 mi WNW 11.5 mph 16.1 mph 0.01 in Rain Rain
6:15 PM 44.6 °F 38.4 °F 41.0 °F 87% 29.83 in 7.0 mi WNW 12.7 mph 24.2 mph 0.02 in Rain Rain
6:35 PM 44.6 °F 39.7 °F 41.0 °F 87% 29.83 in 7.0 mi West 9.2 mph - 0.04 in Rain Rain
6:55 PM 44.6 °F 40.2 °F 41.0 °F 87% 29.83 in 10.0 mi West 8.1 mph - 0.05 in Rain Light Rain
7:15 PM 42.8 °F 36.6 °F 39.2 °F 87% 29.84 in 10.0 mi West 11.5 mph - N/A Rain Light Rain
7:35 PM 42.8 °F 36.6 °F 37.4 °F 81% 29.83 in 10.0 mi West 11.5 mph - N/A   Drizzle
7:55 PM 42.8 °F 39.3 °F 37.4 °F 81% 29.82 in 10.0 mi WSW 5.8 mph - N/A   Light Drizzle
8:15 PM 42.8 °F 38.6 °F 37.4 °F 81% 29.83 in 10.0 mi WSW 6.9 mph - N/A   Overcast
8:35 PM 42.8 °F 38.6 °F 37.4 °F 81% 29.82 in 10.0 mi WSW 6.9 mph - N/A   Overcast
8:55 PM 42.8 °F 39.3 °F 37.4 °F 81% 29.83 in 10.0 mi WSW 5.8 mph - N/A   Overcast
9:15 PM 42.8 °F 38.6 °F 39.2 °F 87% 29.83 in 10.0 mi WSW 6.9 mph - N/A   Overcast
9:35 PM 42.8 °F 39.3 °F 39.2 °F 87% 29.83 in 10.0 mi WSW 5.8 mph - N/A   Overcast
9:55 PM 42.8 °F 39.3 °F 39.2 °F 87% 29.83 in 10.0 mi WSW 5.8 mph - N/A   Scattered Clouds
10:15 PM 42.8 °F 38.6 °F 39.2 °F 87% 29.83 in 10.0 mi WSW 6.9 mph - N/A   Clear
10:35 PM 42.8 °F 37.5 °F 37.4 °F 81% 29.84 in 10.0 mi WSW 9.2 mph - N/A   Clear
10:55 PM 42.8 °F 37.5 °F 37.4 °F 81% 29.84 in 10.0 mi WSW 9.2 mph - N/A   Clear
11:15 PM 42.8 °F 37.5 °F 37.4 °F 81% 29.84 in 10.0 mi West 9.2 mph - N/A   Clear
11:35 PM 42.8 °F 37.0 °F 37.4 °F 81% 29.84 in 10.0 mi West 10.4 mph - N/A   Clear
11:55 PM 41.0 °F 36.4 °F 37.4 °F 87% 29.84 in 10.0 mi West 6.9 mph - N/A   Clear